WD6AWP Weather Reports


Display with metric or nautical units.
time (UTC)temp
F
wind
direction
speed
MPH
gust
MPH
rain 1hr
in
rain 24hr
in
rain mn
in
humidity
%
barometer
mb
20210308214542 63 288 9.0 17.0 0.00 0.00 0.00 70 1021.2
20210308213049 64 284 8.0 17.0 0.00 0.00 0.00 70 1021.3
20210308211628 64 277 8.0 16.0 0.00 0.00 0.00 70 1021.4
20210308210115 64 240 8.0 14.0 0.00 0.00 0.00 70 1021.5
20210308204551 64 290 9.0 14.0 0.00 0.00 0.00 71 1021.7
20210308203059 64 294 5.0 14.0 0.00 0.00 0.00 72 1021.9
20210308201556 64 212 7.0 12.0 0.00 0.00 0.00 72 1022.1
20210308200109 64 257 7.0 15.0 0.00 0.00 0.00 72 1022.4
20210308194603 64 270 6.0 12.0 0.00 0.00 0.00 72 1022.5
20210308193030 64 272 6.0 11.0 0.00 0.00 0.00 74 1022.5
20210308191642 64 284 5.0 13.0 0.00 0.00 0.00 74 1022.6
20210308190111 64 252 3.0 8.0 0.00 0.00 0.00 74 1022.6
20210308184534 64 221 4.0 9.0 0.00 0.00 0.00 72 1022.6
20210308183033 64 234 4.0 11.0 0.00 0.00 0.00 70 1022.5
20210308181531 65 209 2.0 8.0 0.00 0.00 0.00 69 1022.4
20210308180022 64 204 2.0 8.0 0.00 0.00 0.00 69 1022.4
20210308174556 64 230 3.0 6.0 0.00 0.00 0.00 69 1022.4
20210308173135 63 219 2.0 5.0 0.00 0.00 0.00 70 1022.4
20210308171521 62 217 2.0 5.0 0.00 0.00 0.00 71 1022.2
20210308164617 60 212 0.0 4.0 0.00 0.00 0.00 80 1022.0
20210308163151 58 213 0.0 4.0 0.00 0.00 0.00 84 1021.9
20210308161650 58 213 0.0 3.0 0.00 0.00 0.00 86 1021.9
20210308160125 57 226 0.0 0.0 0.00 0.00 0.00 88 1021.8
20210308154644 56 226 0.0 0.0 0.00 0.00 0.00 89 1021.5
20210308153108 56 226 0.0 0.0 0.00 0.00 0.00 90 1021.2
20210308151600 55 225 0.0 0.0 0.00 0.00 0.00 91 1021.0
20210308150110 55 225 0.0 0.0 0.00 0.00 0.00 91 1020.9
20210308144627 55 119 0.0 0.0 0.00 0.00 0.00 91 1020.7
20210308143142 54 119 0.0 0.0 0.00 0.00 0.00 90 1020.5
20210308141626 54 119 0.0 0.0 0.00 0.00 0.00 90 1020.4
20210308140245 55 119 0.0 0.0 0.00 0.00 0.00 90 1020.3
20210308134641 55 119 0.0 0.0 0.00 0.00 0.00 90 1020.0
20210308133233 55 119 0.0 0.0 0.00 0.00 0.00 89 1019.9
20210308131605 55 119 0.0 0.0 0.00 0.00 0.00 89 1019.9
20210308130120 55 119 0.0 2.0 0.00 0.00 0.00 89 1019.7
20210308124643 55 119 0.0 0.0 0.00 0.00 0.00 89 1019.9
20210308121713 55 119 0.0 1.0 0.00 0.00 0.00 88 1019.5
20210308120224 55 119 1.0 4.0 0.00 0.00 0.00 88 1019.2
20210308114651 56 107 0.0 4.0 0.00 0.00 0.00 87 1018.8
20210308113231 56 113 0.0 2.0 0.00 0.00 0.00 87 1019.1
20210308111618 56 113 0.0 0.0 0.00 0.00 0.00 87 1019.0
20210308110245 56 113 0.0 3.0 0.00 0.00 0.00 88 1019.1
20210308104618 56 112 0.0 2.0 0.00 0.00 0.00 88 1019.0
20210308103111 56 112 0.0 0.0 0.00 0.00 0.00 87 1019.1
20210308101527 56 112 0.0 0.0 0.00 0.00 0.00 88 1019.2
20210308100433 56 112 0.0 1.0 0.00 0.00 0.00 87 1019.2
20210308094601 56 112 0.0 1.0 0.00 0.00 0.00 87 1019.1
20210308093113 56 112 0.0 3.0 0.00 0.00 0.00 86 1019.3
20210308091645 56 149 0.0 5.0 0.00 0.00 0.00 86 1019.4
20210308090159 56 161 0.0 7.0 0.00 0.00 0.00 86 1019.5
20210308084520 56 169 2.0 6.0 0.00 0.00 0.00 87 1019.6
20210308083541 55 167 0.0 6.0 0.00 0.00 0.00 87 1019.5
20210308081521 55 121 0.0 0.0 0.00 0.00 0.00 86 1019.4
20210308080031 55 121 0.0 3.0 0.00 0.00 0.00 86 1019.2
20210308074515 55 121 0.0 3.0 0.00 0.00 0.00 86 1019.1
20210308073026 55 121 1.0 3.0 0.00 0.00 0.00 86 1019.1
20210308071512 55 123 0.0 3.0 0.00 0.00 0.00 86 1019.0
20210308070040 55 123 0.0 0.0 0.00 0.00 0.00 84 1019.2
20210308064527 55 123 0.0 1.0 0.00 0.00 0.00 85 1019.0
20210308063011 55 123 0.0 0.0 0.00 0.00 0.00 83 1019.1
20210308061654 56 122 0.0 3.0 0.00 0.00 0.00 82 1018.9
20210308060215 56 130 0.0 5.0 0.00 0.00 0.00 82 1018.7
20210308054708 56 134 2.0 8.0 0.00 0.00 0.00 81 1018.7
20210308053408 57 130 2.0 8.0 0.00 0.00 0.00 81 1018.5
20210308051716 57 124 2.0 7.0 0.00 0.00 0.00 81 1018.7
20210308050303 57 142 4.0 10.0 0.00 0.00 0.00 81 1019.0
20210308044615 57 136 1.0 4.0 0.00 0.00 0.00 81 1018.8
20210308043259 57 164 0.0 3.0 0.00 0.00 0.00 80 1018.9
20210308041821 57 165 1.0 5.0 0.00 0.00 0.00 80 1018.9
20210308040139 57 117 0.0 7.0 0.00 0.00 0.00 80 1018.5
20210308034631 56 156 3.0 7.0 0.00 0.00 0.00 80 1018.4
20210308033128 56 165 1.0 5.0 0.00 0.00 0.00 80 1018.4
20210308031619 56 165 0.0 3.0 0.00 0.00 0.00 80 1018.5
20210308030155 56 165 0.0 5.0 0.00 0.00 0.00 80 1018.3
20210308024616 56 167 2.0 6.0 0.00 0.00 0.00 80 1018.2
20210308023145 56 173 0.0 5.0 0.00 0.00 0.00 79 1017.9
20210308021639 56 173 0.0 5.0 0.00 0.00 0.00 78 1017.4
20210308020126 57 177 2.0 6.0 0.00 0.00 0.00 77 1017.6
20210308014630 57 190 2.0 9.0 0.00 0.00 0.00 77 1017.5
20210308013152 57 207 4.0 9.0 0.00 0.00 0.00 78 1017.8
20210308011620 57 201 4.0 9.0 0.00 0.00 0.00 77 1017.5
20210308010317 57 192 2.0 9.0 0.00 0.00 0.00 77 1017.3
20210308004915 58 197 5.0 8.0 0.00 0.00 0.00 78 1017.1
20210308003319 58 186 4.0 10.0 0.00 0.00 0.00 78 1016.8
20210308001551 58 205 5.0 10.0 0.00 0.00 0.00 77 1017.4
20210308000638 58 217 5.0 9.0 0.00 0.00 0.00 77 1016.7
20210307234605 58 153 6.0 11.0 0.00 0.00 0.00 76 1016.8
20210307233334 59 209 5.0 12.0 0.00 0.00 0.00 75 1016.9
20210307231657 59 196 7.0 11.0 0.00 0.00 0.00 74 1017.1
20210307230235 60 175 3.0 10.0 0.00 0.00 0.00 74 1016.9
20210307224553 60 232 5.0 9.0 0.00 0.00 0.00 72 1017.0
20210307223310 61 203 6.0 10.0 0.00 0.00 0.00 71 1016.9
20210307221650 61 205 3.0 7.0 0.00 0.00 0.00 72 1016.7
20210307220058 61 206 3.0 9.0 0.00 0.00 0.00 72 1017.0